Regional Weather Roundup
Issued by NWS

Home | Current Version | Previous Version | Graphics & Text | Print | Product List | Glossary On
Versions: 1 2 3 4 5 6 7 8 9 10 11 12 13 14 15 16 17 18 19 20 21 22 23 24 25 26 27 28 29 30 31 32 33 34 35 36 37 38 39 40 41 42 43 44 45 46 47 48 49 50
000
ASUS45 KABQ 180601
RWRNM
NEW MEXICO REGIONAL WEATHER ROUNDUP
NATIONAL WEATHER SERVICE ALBUQUERQUE NM
1200 AM MDT FRI AUG 18 2017

NOTE: "FAIR" MEANS FEW OR NO CLOUDS BELOW 12,000 FEET AGL WITH NO
       SIGNIFICANT WEATHER OR OBSTRUCTIONS TO VISION.

      THIS PRODUCT IS RELEASED AS TWO VERSIONS.  ONE VERSION NEAR
      THE TOP OF THE HOUR CONTAINING PRELIMINARY DATA FROM ALBUQUERQUE
      AND OTHER STATIONS.  A FINAL VERSION WITH ADDITIONAL DATA IS
      ISSUED ABOUT 10 MINUTES AFTER THE HOUR.

NMZ501-503-504-510>518-180700-
NORTHWEST PLATEAU/NORTHCENTRAL MOUNTAINS

CITY           SKY/WX    TMP DP  RH WIND       PRES   REMARKS
FARMINGTON     FAIR      64  30  27 NE5       30.18S
6HR MIN TEMP:  63; 6HR MAX TEMP:  89;

LOS ALAMOS     CLOUDY    71  32  24 N5        30.33S
SANTA FE       FAIR      63  39  41 N9        30.24S
6HR MIN TEMP:  59; 6HR MAX TEMP:  84;

TAOS           FAIR      56  37  49 S7        30.35F
ANGEL FIRE     FAIR      44  39  85 S5        30.45S

$$
NMZ402-403-502-505>509-180700-
WESTCENTRAL MOUNTAINS/SOUTHWEST MOUNTAINS

CITY           SKY/WX    TMP DP  RH WIND       PRES   REMARKS
GALLUP         FAIR      56  30  37 CALM      30.28S
6HR MIN TEMP:  53; 6HR MAX TEMP:  84;

GRANTS         FAIR      58  27  29 NW7       30.30S
SILVER CITY    FAIR      65  40  39 N12       30.21F

$$
NMZ407-409-411-412-180700-
SOUTHERN DESERTS

CITY           SKY/WX    TMP DP  RH WIND       PRES   REMARKS
DEMING         FAIR      72  44  36 NW8       30.12S
6HR MIN TEMP:  72; 6HR MAX TEMP:  92;

LAS CRUCES     FAIR      74  40  29 NW8       30.12S
HOLLOMAN AFB   FAIR      75  47  37 SW10      30.11R
ALAMOGORDO     FAIR      72  46  40 S9        30.11R
T OR C         FAIR      79  39  23 W9        30.14R
6HR MIN TEMP:  78; 6HR MAX TEMP:  92;


$$
NMZ519>523-180700-
CENTRAL VALLEYS/CENTRAL HIGHLANDS

CITY           SKY/WX    TMP DP  RH WIND       PRES   REMARKS
ALBUQUERQUE    MOCLDY    77  39  25 N7        30.17S
6HR MIN TEMP:  77; 6HR MAX TEMP:  89;

CLINES CORNERS FAIR      63  44  50 S7        30.31S
6HR MIN TEMP:  63; 6HR MAX TEMP:  82;

BELEN          NOT AVBL
SOCORRO        FAIR      72  40  30 SW7       30.13S
6HR MIN TEMP:  71; 6HR MAX TEMP:  91;


$$
NMZ524>526-539-540-180700-
SOUTHCENTRAL MOUNTAINS

CITY           SKY/WX    TMP DP  RH WIND       PRES   REMARKS
RUIDOSO        FAIR      66  46  48 SE5       30.35S

$$
NMZ527>531-180700-
NORTHEAST HIGHLANDS/NORTHEAST PLAINS

CITY           SKY/WX    TMP DP  RH WIND       PRES   REMARKS
LAS VEGAS      FAIR      63  47  55 N7        30.32R
6HR MIN TEMP:  60; 6HR MAX TEMP:  79;

RATON          FAIR      59  51  75 N6        30.26S
6HR MIN TEMP:  57; 6HR MAX TEMP:  78;

CLAYTON        FAIR      65  59  81 N7        30.18R
6HR MIN TEMP:  64; 6HR MAX TEMP:  83;


$$
NMZ532>537-180700-
EASTCENTRAL PLAINS

CITY           SKY/WX    TMP DP  RH WIND       PRES   REMARKS
SANTA ROSA     FAIR      74  51  44 S10       30.15S
TUCUMCARI      FAIR      77  63  61 S20G29    30.08S
6HR MIN TEMP:  76; 6HR MAX TEMP:  94;

CANNON AFB     FAIR      69  69 100 S10       30.17S
6HR MIN TEMP:  69; 6HR MAX TEMP:  84;

CLOVIS AIRPORT FAIR      70  64  81 S13       30.16S

$$
NMZ028-029-538-180700-
SOUTHEAST PLAINS

CITY           SKY/WX    TMP DP  RH WIND       PRES   REMARKS
ROSWELL        FAIR      75  62  64 S7        30.12R
6HR MIN TEMP:  75; 6HR MAX TEMP:  96;

ARTESIA        FAIR      75  63  64 SE9       30.10S
CARLSBAD       FAIR      75  63  66 E8        30.08S
6HR MIN TEMP:  74; 6HR MAX TEMP:  92;

HOBBS          FAIR      72  63  73 S7        30.13S


$$




USA.gov is the U.S. government's official web portal to all federal, state and local government web resources and services.